Date,TemperatureHighF,TemperatureAvgF,TemperatureLowF,DewpointHighF,DewpointAvgF,DewpointLowF,HumidityHigh,HumidityAvg,HumidityLow,PressureMaxIn,PressureMinIn,WindSpeedMaxMPH,WindSpeedAvgMPH,GustSpeedMaxMPH,PrecipitationSumIn
2013-6-1,88.0,77.9,70.9,77.0,72.5,68.8,96,84,66,30.12,30.02,5,1,10,0.00
2013-6-2,95.9,79.6,72.4,77.8,73.6,70.8,96,84,48,30.06,29.91,4,1,11,0.24
2013-6-3,92.8,79.5,71.7,77.3,73.4,70.2,96,84,54,30.00,29.90,4,1,8,0.01
2013-6-8,72.2,71.5,70.8,71.0,70.0,69.0,96,95,94,30.13,30.08,2,0,5,1.36
2013-6-9,92.0,77.6,69.8,78.5,73.8,68.9,98,89,59,30.15,30.06,3,0,12,0.25
2013-6-10,94.6,79.7,71.2,77.9,73.1,69.8,97,83,47,30.14,30.03,7,1,15,0.35
2013-6-11,91.2,76.5,70.9,79.6,73.3,68.6,97,91,63,30.13,30.05,7,0,10,0.83
2013-6-12,96.7,82.2,70.6,79.5,73.2,69.4,98,77,44,30.12,30.01,4,1,9,0.01
2013-6-13,95.1,83.0,73.0,78.3,73.4,69.9,95,75,53,30.06,29.91,6,1,12,0.00
2013-6-14,92.1,81.8,73.9,76.1,73.2,71.0,95,77,51,29.97,29.87,8,3,17,0.00
2013-6-15,89.4,80.6,75.3,77.7,74.0,70.7,96,81,65,30.11,29.94,4,1,10,0.09
2013-6-16,91.7,82.3,76.7,79.0,75.3,71.1,90,80,62,30.13,30.05,5,1,8,0.01
2013-6-17,94.5,81.8,74.1,81.0,76.1,72.3,97,84,53,30.12,29.99,4,1,7,1.03
2013-6-18,93.0,82.9,73.2,78.4,74.9,71.7,96,79,57,30.09,29.98,6,1,9,0.00
2013-6-19,91.9,82.1,73.9,78.6,74.7,70.4,95,79,61,30.07,29.98,6,1,8,0.00
2013-6-20,95.8,80.1,71.6,77.9,72.4,69.4,96,80,45,30.13,30.03,7,1,10,0.67
2013-6-21,94.4,76.0,69.6,76.3,71.3,68.4,97,87,52,30.17,30.08,8,0,14,2.03
2013-6-22,90.6,76.2,69.0,78.6,72.5,68.1,98,89,59,30.16,30.09,5,0,7,0.66
2013-6-23,91.2,79.4,70.4,78.0,73.9,69.2,97,84,58,30.19,30.11,3,0,10,0.00
2013-6-24,93.7,81.3,71.5,79.8,73.8,69.9,97,80,53,30.23,30.11,3,0,6,0.08
2013-6-25,93.1,81.6,71.3,77.4,72.4,67.2,96,76,47,30.19,30.07,3,0,11,0.00
2013-6-26,93.7,79.1,71.9,77.9,73.4,69.8,96,84,53,30.12,30.03,6,0,11,0.68
2013-6-27,93.5,79.6,69.8,77.9,73.3,68.3,97,82,55,30.08,29.95,9,1,12,0.01
2013-6-28,92.4,80.5,74.3,78.4,74.4,71.9,95,83,59,29.99,29.87,9,2,13,0.00
2013-6-29,90.2,80.3,74.2,78.3,74.8,72.0,95,84,58,29.90,29.82,10,2,13,0.18
2013-6-30,90.1,78.6,74.3,78.9,74.1,71.9,94,86,64,29.91,29.84,8,2,14,0.02